Weather History for Kirksville, MO

Change the Weather History Date:

Wednesday, April 3, 2013

  Actual Average Record
Temperature  
Mean Temperature 36 °F 48 °F  
Max Temperature 49 °F 59 °F 85 °F (2011)
Min Temperature 23 °F 37 °F 11 °F (1936)
Degree Days  
Heating Degree Days 29 17  
Month to date heating degree days 91 53  
Since 1 July heating degree days 5453 5340  
Cooling Degree Days 0 0  
Month to date cooling degree days 0 0  
Year to date cooling degree days 0 0  
Moisture  
Dew Point 19 °F    
Average Humidity 55    
Maximum Humidity 81    
Minimum Humidity 29    
Precipitation  
Precipitation 0.00 in 0.07 in 1.30 in (1957)
Month to date precipitation T 0.20  
Year to date precipitation 8.79 5.55  
Sea Level Pressure  
Sea Level Pressure 30.37 in    
Wind  
Wind Speed 6 mph (East)    
Max Wind Speed 15 mph    
Max Gust Speed 23 mph    
Visibility 10 miles    
Events      
T = Trace of Precipitation, MM = Missing Value Source: NWS Daily Summary

Daily Weather History Graph

Daily Weather History Graph

Search for Another Location

Airport:

Trip Planner

Search our weather history database for the weather conditions in past years. The results will help you decide how hot, cold, wet, or windy it might be!

Date:

Astronomy

Apr. 03, 2013 Rise Set
Actual Time 6:50 AM CDT 7:36 PM CDT
Civil Twilight 6:23 AM CDT 8:04 PM CDT
Nautical Twilight 5:50 AM CDT 8:36 PM CDT
Astronomical Twilight 5:17 AM CDT 9:10 PM CDT
Moon 2:31 AM CDT (4/3) 12:49 PM CDT (4/3)
Length of Visible Light 13h 41m
Length of Day
12h 46m
Last Quarter, 44% of the Moon is Illuminated
Apr 3
Last Quarter
Apr 10
New
Apr 18
First Quarter
Apr 25
Full
May 2
Last Quarter

Hourly Weather History & Observations

Time (CDT) Temp. Windchill Dew Point Humidity Pressure Visibility Wind Dir Wind Speed Gust Speed Precip Events Conditions
12:55 AM 28.9 °F 23.9 °F 21.0 °F 72% 30.38 in 10.0 mi ENE 4.6 mph - N/A   Clear
1:55 AM 27.0 °F 21.6 °F 21.0 °F 78% 30.38 in 10.0 mi NE 4.6 mph - N/A   Clear
2:55 AM 26.1 °F 19.4 °F 19.9 °F 78% 30.38 in 10.0 mi NE 5.8 mph - N/A   Clear
3:55 AM 27.0 °F 21.6 °F 19.9 °F 75% 30.38 in 10.0 mi ENE 4.6 mph - N/A   Clear
4:55 AM 26.1 °F 19.4 °F 19.0 °F 75% 30.38 in 10.0 mi East 5.8 mph - N/A   Clear
5:55 AM 24.1 °F 19.7 °F 18.0 °F 77% 30.40 in 10.0 mi ENE 3.5 mph - N/A   Clear
6:55 AM 24.1 °F 18.2 °F 19.0 °F 81% 30.43 in 10.0 mi NE 4.6 mph - N/A   Clear
7:55 AM 28.0 °F 21.7 °F 21.0 °F 75% 30.44 in 10.0 mi ENE 5.8 mph - N/A   Clear
8:55 AM 33.1 °F 26.1 °F 21.0 °F 61% 30.46 in 10.0 mi East 8.1 mph - N/A   Clear
9:55 AM 37.0 °F 30.4 °F 18.0 °F 46% 30.45 in 10.0 mi East 9.2 mph - N/A   Clear
10:55 AM 39.0 °F 34.0 °F 17.1 °F 41% 30.44 in 10.0 mi East 6.9 mph - N/A   Clear
11:55 AM 42.1 °F 37.1 °F 17.1 °F 37% 30.43 in 10.0 mi East 8.1 mph - N/A   Clear
12:55 PM 45.0 °F 39.7 °F 18.0 °F 34% 30.40 in 10.0 mi East 10.4 mph - N/A   Clear
1:55 PM 46.9 °F - 18.0 °F 32% 30.37 in 10.0 mi East 12.7 mph - N/A   Clear
2:55 PM 48.0 °F - 17.1 °F 29% 30.37 in 10.0 mi ESE 12.7 mph - N/A   Clear
3:55 PM 48.0 °F - 17.1 °F 29% 30.35 in 10.0 mi East 10.4 mph - N/A   Clear
4:55 PM 48.0 °F - 18.0 °F 30% 30.33 in 10.0 mi East 4.6 mph 17.3 mph N/A   Clear
5:55 PM 46.9 °F - 19.0 °F 33% 30.32 in 10.0 mi East 8.1 mph - N/A   Clear
6:55 PM 46.0 °F 41.4 °F 19.0 °F 34% 30.32 in 10.0 mi ESE 9.2 mph - N/A   Clear
7:55 PM 42.1 °F 39.2 °F 21.9 °F 45% 30.32 in 10.0 mi SE 4.6 mph - N/A   Clear
8:55 PM 41.0 °F 39.0 °F 19.0 °F 41% 30.31 in 10.0 mi ESE 3.5 mph - N/A   Clear
9:55 PM 37.0 °F 34.5 °F 21.0 °F 52% 30.31 in 10.0 mi ENE 3.5 mph - N/A   Clear
10:55 PM 30.9 °F - 21.0 °F 67% 30.30 in 10.0 mi Calm Calm - N/A   Clear
11:55 PM 30.0 °F - 21.9 °F 72% 30.30 in 10.0 mi Calm Calm - N/A   Clear